SCP
0 -0 -0 -0 -0 -0 -0 0 -0 0 -0 -0 -0 -0 -0 -0 -0 -0 0 -0 -0 0 0 0 -0 0 0 0 0 0 0 -0 -0 -0 -0 -0 -0 -0 -0 -0 -0 -0 -0 -0 -0 -0 -0 -0 -0
-0 -0 0 -0 0 0 0 0 0 0 -0 -0 -0 -0 -0 -0 -0 0 -0 -0 -0 -0 0 0 -0 -0 0 0 0 0 0 0 0 0 0 0 0 0 0 0 0 0 0 0 0 0 -0 -0 -0
-0 -0 -0 -0 0 0 -0 0 0 0 -0 -0 -0 -0 -0 0 0 -0 -0 0 0 -0 -0 0 0 -0 0 0 0 0 0 0 0 0 0 0 0 0 0 0 0 0 0 0 0 0 0 0 0
-0 -0 -0 0 0 0 0 0 0 0 -0 -0 -0 -0 0 0 0 -0 -0 0 -0 0 -0 0 0 0 0 0 0 0 0 0 0 0 0 0 0 0 0 0 0 0 0 0 0 0 0 0 0
-0 -0 0 0 0 0 0 0 0 0 0 0 -0 0 0 0 0 0 0 0 -0 -0 -0 -0 -0 0 0 0 0 0 0 0 0 0 0 0 0 0 0 0 0 0 0 0 0 0 0 0 0
-0 0 0 0 0 0 0 0 -0 -0 -0 0 -0 -0 0 0 0 0 0 0 0 -0 -0 0 -0 -0 0 0 0 0 0 0 0 0 0 0 0 0 0 0 0 0 0 0 0 0 0 0 0
0 -0 -0 0 -0 0 0 -0 -0 -0 -0 -0 -0 -0 0 0 0 0 0 0 0 0 0 -0 0 0 -0 -0 0 0 0 0 0 0 0 0 0 0 0 0 0 0 0 0 0 0 0 0 0
0 0 -0 -0 0 -0 0 -0 -0 0 -0 0 -0 0 0 -0 -0 0 0 0 0 0 0 0 -0 0 -0 -0 -0 0 0 0 0 0 0 0 0 0 0 0 0 0 0 0 0 0 0 0 0
0 0 -0 0 0 0 -0 -0 -0 0 0 0 0 0 0 -0 -0 0 0 0 0 0 0 0 0 -0 -0 0 -0 -0 -0 -0 -0 -0 -0 -0 -0 0 0 0 1 0 0 0 0 0 0 0 0
0 -0 0 0 0 0 0 -0 0 0 0 0 0 0 0 -0 -0 -0 0 0 0 0 0 0 0 0 0 -0 -0 -0 -0 -0 -0 -0 0 -0 -0 0 0 0 0 0 0 0 0 0 0 0 0
-0 0 0 0 0 -0 0 0 0 -0 0 -0 -0 -0 0 -0 -0 -0 -0 -0 -0 0 0 0 0 0 0 0 0 0 0 0 0 0 0 -0 0 0 0 1 1 1 0 0 0 0 0 0 0
0 0 0 0 0 0 0 0 -0 -0 -0 -0 0 -0 -0 -0 -0 -0 -0 0 0 0 0 0 0 0 1 1 1 0 0 0 0 0 0 0 0 1 1 2 2 2 1 1 1 1 1 1 0
0 0 0 0 0 0 -0 -0 -0 -0 -0 -0 -0 0 -0 0 -0 -0 -0 0 0 0 0 1 1 1 1 1 0 0 0 0 0 0 0 0 0 0 0 1 1 1 2 2 1 1 1 1 1
0 0 0 0 0 0 0 -0 0 -0 -0 0 0 0 0 -0 0 -0 0 0 1 1 1 1 1 1 0 0 0 0 0 0 0 0 0 0 0 0 0 0 0 0 1 1 1 1 1 1 1
-0 -0 -0 0 0 0 0 0 -0 -0 0 0 0 0 0 0 0 0 0 1 1 1 1 1 0 0 0 0 0 0 0 0 0 0 0 0 0 0 0 0 0 0 0 0 0 1 1 2 1
-0 -0 -0 0 0 0 0 0 0 0 0 0 0 0 0 0 0 0 0 1 0 1 1 1 0 0 0 0 0 0 0 0 0 0 0 0 0 0 0 0 0 0 0 0 0 0 0 0 0
0 0 0 0 0 0 0 0 0 0 0 0 0 0 0 0 0 0 0 0 1 1 0 0 0 0 0 0 0 0 0 0 0 0 0 0 0 0 0 0 0 0 0 0 0 0 1 0 0
0 0 0 0 0 0 0 0 0 0 0 0 0 0 0 0 0 0 0 0 0 0 0 0 0 0 0 0 0 0 0 0 0 0 0 0 0 0 0 0 0 0 0 0 0 0 0 0 0
0 0 0 0 0 0 0 0 0 0 0 0 0 0 0 0 0 0 0 0 0 0 0 0 0 0 0 0 0 0 0 0 0 0 0 0 0 0 0 0 0 0 0 0 0 0 0 0 0
0 0 0 0 0 0 0 0 0 0 0 0 0 0 0 0 0 0 0 0 0 0 0 0 0 0 0 0 0 0 0 0 0 0 0 0 0 0 0 0 0 0 0 0 0 0 0 0 0
0 0 0 0 0 0 0 0 0 0 0 0 0 0 0 0 0 0 0 0 0 0 0 1 1 1 1 1 0 0 0 0 0 0 0 0 0 0 0 0 0 0 0 0 0 0 0 0 0
0 0 0 0 0 0 0 0 0 0 0 0 0 0 0 0 0 0 0 0 0 0 0 0 0 0 0 0 0 0 0 0 0 0 0 0 0 0 0 0 0 0 0 0 0 0 0 0 0
0 0 0 0 0 0 0 0 0 0 0 0 0 0 0 0 0 0 0 0 0 0 0 0 0 0 0 0 0 0 0 0 0 0 0 0 0 0 0 0 0 0 0 0 0 0 0 0 0
0 0 0 0 0 0 0 0 0 0 0 0 0 0 0 0 0 0 0 0 0 0 0 0 0 0 0 0 0 0 0 0 0 0 0 0 0 0 0 0 0 0 0 0 0 0 0 0 0
0 0 0 0 0 0 0 0 0 0 0 0 0 0 0 0 0 0 0 0 0 0 0 0 0 0 0 0 0 0 0 0 0 0 0 0 0 0 1 0 0 0 0 0 0 0 0 0 0
0 0 0 0 0 0 0 0 0 0 0 0 0 0 0 0 0 0 0 0 0 0 0 0 0 0 0 0 0 0 0 0 0 0 0 0 0 0 0 0 1 1 0 0 0 0 0 0 0
0 0 0 0 0 0 0 0 0 0 0 0 0 0 0 0 0 0 0 0 0 0 0 0 0 0 0 0 0 0 0 0 0 0 0 0 0 0 0 0 1 1 1 1 0 0 0 0 0
0 0 0 0 0 0 0 0 0 0 0 0 0 0 0 0 0 0 0 0 0 0 0 0 0 0 0 0 0 0 0 0 0 0 0 0 0 0 0 0 0 1 1 1 0 0 0 0 0
0 0 0 0 0 0 0 0 0 0 0 0 0 0 0 0 0 0 0 0 0 0 0 0 0 0 0 0 0 0 0 0 0 0 0 0 0 0 0 0 0 1 1 0 0 0 0 0 0
0 0 0 0 0 0 0 0 0 0 0 0 0 0 0 0 0 0 0 0 0 0 0 0 0 0 0 0 0 0 0 0 0 0 0 0 0 0 0 0 0 0 0 0 0 0 0 0 0
Wind_Speed_500mb
12 10 4 6 6 1 15 18 6 13 8 6 10 3 1 6 13 7 12 15 18 23 21 27 25 25 31 34 39 39 36 32 27 23 22 22 21 19 17 15 14 14 13 13 13 14 14 14 13
5 5 2 13 5 2 11 6 17 14 10 10 8 5 4 12 5 12 16 23 24 18 19 19 25 27 30 35 36 36 34 30 25 22 21 21 20 18 15 13 11 9 7 7 7 8 9 9 9
7 5 14 8 6 13 14 7 16 9 6 3 3 2 5 11 13 20 12 20 20 19 17 19 22 26 29 32 35 35 33 30 25 21 20 19 18 16 13 9 7 5 3 1 2 3 5 6 6
4 8 12 22 11 14 12 13 9 11 6 2 5 6 11 15 18 13 16 21 21 18 15 23 23 24 26 30 32 33 31 30 26 24 21 19 17 15 12 9 6 6 6 5 5 5 7 7 9
7 12 8 6 7 12 8 10 12 7 7 5 2 12 13 17 15 14 21 24 23 19 16 14 20 24 28 29 29 28 30 29 28 26 24 20 16 12 11 11 10 11 10 10 10 10 10 11 12
19 11 17 12 10 13 6 6 6 4 5 6 4 9 19 16 18 20 21 23 22 19 16 12 19 27 27 24 23 23 24 23 24 23 22 21 18 17 17 16 15 15 15 15 15 15 15 16 17
23 16 3 3 12 14 7 4 9 5 2 3 8 3 13 18 24 25 24 24 20 19 14 15 16 25 28 27 24 22 19 19 20 20 22 20 20 20 20 20 20 20 20 19 19 20 20 21 22
9 10 15 12 12 18 11 9 2 10 13 7 3 11 20 19 28 24 19 21 22 20 17 17 17 21 24 22 20 17 14 13 12 14 15 15 16 20 21 22 23 24 24 24 23 24 25 26 26
5 13 14 10 13 21 15 8 4 4 6 6 2 11 5 18 25 18 17 18 19 20 20 22 22 24 25 21 20 16 12 9 7 10 10 13 15 19 21 23 24 25 26 26 27 27 28 29 31
15 8 9 7 12 20 15 1 11 8 7 11 5 3 4 19 20 16 16 24 19 19 20 23 23 20 23 22 20 15 11 6 10 8 8 9 16 17 18 22 24 27 27 26 25 25 26 28 25
2 19 15 14 11 2 9 11 2 9 8 29 25 7 2 12 15 11 9 15 20 14 13 14 16 16 15 18 17 12 12 11 12 10 12 17 17 18 18 18 20 23 23 24 24 20 20 19 21
23 16 7 12 8 4 5 11 24 25 23 22 8 8 0 7 8 8 6 4 3 7 11 18 16 21 24 23 21 17 14 13 8 11 13 18 13 18 21 20 21 22 23 24 22 21 23 21 24
18 13 9 7 13 16 19 16 15 36 36 17 9 8 7 10 11 11 13 6 2 5 7 12 18 25 28 28 27 24 17 9 10 12 13 16 16 24 25 22 21 23 24 27 29 29 29 26 27
9 10 7 4 14 7 17 21 5 33 31 18 14 11 12 17 19 23 20 16 12 15 10 22 21 26 26 29 22 18 15 10 7 5 8 12 14 17 21 20 17 18 20 23 27 32 35 35 35
22 18 17 14 9 11 10 19 20 26 21 18 18 19 21 22 25 28 26 20 17 21 25 23 25 25 22 18 16 14 11 7 2 4 9 12 14 14 13 12 14 18 24 28 27 29 33 36 39
16 11 15 18 11 7 16 13 18 20 17 18 19 19 21 22 24 22 18 21 17 14 24 22 23 21 19 19 17 14 10 4 3 7 11 12 15 14 13 11 15 20 17 20 23 25 34 39 44
16 8 7 15 11 6 12 17 14 13 14 15 17 20 23 25 28 25 10 10 12 11 20 25 21 23 24 21 19 14 8 4 6 7 8 11 13 16 17 18 20 19 20 17 19 21 22 27 35
11 12 7 4 9 4 11 15 12 11 13 15 19 22 26 30 34 30 21 13 4 5 15 19 21 22 22 20 13 8 7 6 6 4 5 10 12 16 19 21 25 24 22 21 27 29 24 25 27
1 7 7 4 6 3 5 9 10 10 11 15 19 23 29 32 32 33 30 24 16 7 6 15 16 18 17 9 9 8 7 7 6 9 14 17 16 19 25 17 28 28 26 30 30 29 25 21 21
7 10 5 5 1 14 13 11 8 9 13 14 16 23 25 27 32 31 29 27 23 16 12 9 3 4 4 7 11 12 11 13 13 16 24 23 25 27 27 30 27 31 24 35 35 34 24 22 17
2 12 5 16 3 13 13 23 20 14 12 13 15 18 21 25 28 29 28 26 21 18 13 8 2 5 8 15 11 15 19 23 23 23 24 27 29 37 41 41 38 39 39 21 37 27 28 20 22
17 5 14 19 19 17 7 19 24 20 15 10 8 11 15 20 21 21 22 23 24 22 21 19 20 24 26 27 27 30 28 29 34 37 38 40 40 44 45 49 46 45 33 35 30 33 28 22 22
11 14 14 18 22 22 26 14 20 20 18 15 5 4 9 13 18 20 20 20 20 21 23 24 25 27 29 31 36 37 41 49 48 42 44 46 51 48 48 45 47 51 45 39 37 31 29 20 19
9 15 15 13 12 19 8 9 8 13 18 14 8 2 7 14 17 18 21 23 25 27 30 33 35 35 33 31 35 42 52 55 65 66 74 55 50 47 43 44 47 47 43 41 32 31 26 25 25
16 15 8 8 11 11 6 13 6 10 7 4 4 5 7 14 18 22 27 32 36 40 43 44 44 45 45 46 44 43 44 51 54 44 46 48 48 46 44 44 47 48 48 45 46 40 34 28 24
9 13 8 10 11 22 13 11 11 9 7 5 4 9 16 22 28 33 39 42 45 47 48 48 45 47 45 47 49 49 51 52 54 54 52 54 56 54 50 47 52 52 50 45 47 47 35 34 33
6 2 9 10 15 15 2 7 20 14 11 7 8 16 23 30 36 41 44 46 48 50 50 51 53 55 55 55 56 55 55 56 58 59 61 62 63 59 53 49 52 54 54 49 43 42 34 40 45
12 7 8 4 9 18 11 16 11 12 16 8 19 23 29 37 43 48 48 52 54 52 52 53 56 58 59 59 59 59 59 61 65 68 72 68 64 60 58 56 58 57 58 50 43 41 37 41 42
11 8 2 8 9 10 16 9 11 16 17 16 32 40 40 44 50 51 57 57 58 58 58 60 61 61 63 63 62 60 62 66 67 69 65 61 62 63 65 64 62 62 55 49 45 41 42 42 42
5 5 7 6 6 13 19 27 11 7 22 24 35 38 44 48 52 57 61 63 63 64 65 67 66 67 65 63 61 64 71 65 67 58 60 60 62 60 61 55 63 73 65 60 52 46 47 46 46
Wind_Direction_500mb
338 19 107 285 254 242 102 89 45 103 158 95 102 136 61 18 352 25 128 148 146 157 164 162 160 157 162 162 168 171 171 168 162 157 155 152 148 144 138 129 119 112 107 104 97 87 76 71 63
345 74 259 274 235 188 67 61 77 51 70 137 124 145 146 92 95 120 130 163 149 162 163 165 165 161 167 170 170 174 176 177 172 168 165 160 157 152 147 141 131 122 113 102 92 81 70 57 45
108 184 260 271 257 181 149 118 106 104 140 201 130 119 93 88 115 128 140 156 154 156 164 179 172 166 167 173 180 178 177 179 180 178 174 169 164 160 157 155 157 158 151 127 35 24 28 19 13
169 220 229 246 108 52 82 116 115 131 128 233 3 105 96 99 129 136 141 149 145 153 161 178 173 174 171 168 176 182 179 184 182 182 180 177 175 173 173 181 203 223 232 249 279 301 317 324 326
211 238 244 268 105 127 85 102 157 152 64 68 277 93 95 121 116 154 162 149 152 154 161 169 169 178 175 167 168 172 176 177 181 181 181 187 189 197 207 211 224 242 248 252 264 280 292 297 299
224 266 247 189 158 140 130 161 209 284 15 79 208 128 101 145 126 130 145 155 149 146 143 174 168 171 177 168 163 167 170 174 181 186 192 200 209 217 226 232 235 242 248 250 255 265 278 286 290
262 237 249 223 164 156 121 238 236 341 79 134 23 124 98 143 145 125 134 139 146 148 160 155 167 177 174 172 170 159 162 179 185 197 207 216 224 232 238 243 246 249 250 251 255 260 266 272 278
256 261 195 200 173 122 134 173 261 222 86 114 29 19 95 154 157 145 131 137 147 147 156 155 161 166 174 180 167 165 164 180 189 207 216 229 240 247 247 249 250 252 252 253 252 255 260 264 267
231 235 203 153 183 116 144 170 162 95 146 137 95 16 66 159 169 179 176 151 153 160 170 168 162 165 172 176 174 176 165 175 204 213 234 244 252 250 259 260 262 260 261 264 266 265 266 269 269
245 217 67 47 72 132 134 274 151 217 167 205 248 331 143 168 171 181 189 185 173 175 179 175 172 168 169 170 168 151 138 144 193 200 231 247 240 245 246 257 261 259 261 262 266 269 270 266 264
319 97 122 103 84 28 124 140 155 266 191 10 337 81 177 201 202 207 207 205 218 218 190 186 176 166 164 172 163 166 172 184 204 212 240 245 253 266 268 266 275 270 267 266 273 275 275 267 253
114 99 96 85 57 210 141 108 78 48 7 339 321 8 342 206 215 225 246 217 213 175 180 178 188 194 194 195 192 206 201 213 221 245 266 274 284 274 259 259 256 270 269 259 258 261 259 253 256
116 116 100 105 92 70 101 66 99 29 8 17 20 351 320 288 257 259 268 309 295 191 200 174 207 217 223 221 221 220 217 223 249 265 278 282 280 275 280 278 278 260 260 264 267 267 267 266 267
147 137 128 107 91 100 98 61 10 4 1 6 9 343 318 299 287 275 274 284 300 248 228 230 228 223 224 222 222 221 231 235 236 274 312 312 301 294 286 290 290 287 282 280 270 265 264 267 268
153 151 129 84 138 133 151 75 35 4 9 7 355 333 323 320 310 284 276 277 263 252 240 246 235 231 219 212 212 220 224 215 243 311 307 314 315 313 299 299 300 296 290 292 286 281 277 273 268
199 240 194 81 152 144 223 107 43 13 17 24 17 5 349 337 339 330 283 269 271 250 270 247 238 216 206 209 210 211 203 175 256 300 308 318 317 318 310 313 296 292 307 303 302 289 276 272 270
194 174 168 122 61 161 251 116 47 30 38 40 36 31 25 16 10 0 339 291 271 246 268 249 219 209 209 208 209 205 207 208 268 290 313 312 323 331 329 317 310 302 293 306 305 305 294 281 272
150 178 195 242 80 108 106 111 85 56 55 52 49 46 42 37 27 21 17 13 353 193 256 223 216 219 218 219 217 225 256 277 285 299 311 334 343 340 346 337 335 324 310 302 294 293 292 300 290
279 262 266 92 90 215 88 125 93 78 77 70 56 51 46 44 39 37 38 39 42 49 252 225 228 226 219 209 211 243 234 245 257 268 288 307 305 309 316 320 319 319 317 315 306 300 301 297 290
262 269 229 201 109 279 179 157 133 113 86 71 60 54 49 46 42 39 42 42 44 47 48 49 42 265 276 289 265 249 254 258 255 269 279 289 294 299 302 302 303 304 308 309 309 309 303 295 291
321 304 289 298 257 252 233 201 181 152 130 100 75 59 48 44 40 37 34 34 32 25 21 17 323 251 275 251 291 283 275 277 286 284 288 288 283 295 294 295 293 295 297 294 306 306 310 296 286
284 19 293 280 274 289 236 290 192 166 162 149 107 54 34 22 24 25 22 19 18 21 13 5 332 316 312 301 290 282 284 283 278 282 286 282 285 283 281 282 278 282 278 280 283 291 300 304 293
12 319 296 288 272 289 231 256 106 174 193 170 168 48 24 9 2 358 359 356 356 358 350 346 342 331 321 312 297 288 281 277 279 285 288 291 290 284 274 262 257 265 268 266 265 275 283 291 291
309 261 251 262 258 241 107 263 235 183 237 168 196 278 344 344 339 337 336 334 330 331 329 324 320 313 308 305 300 295 291 287 286 285 284 287 286 280 275 269 256 249 242 246 253 259 276 277 282
326 310 307 234 207 280 102 265 308 100 147 275 251 281 316 325 325 324 320 318 314 315 315 315 308 303 298 294 287 282 282 281 285 287 284 282 281 281 278 272 259 250 247 239 250 258 261 276 278
354 333 311 302 319 315 236 262 76 93 150 186 264 306 303 318 321 316 312 310 309 308 310 311 309 307 303 295 288 280 278 283 281 284 281 278 279 280 279 271 266 252 243 239 241 249 256 254 275
59 347 9 300 265 265 340 209 191 170 187 221 300 314 314 315 313 312 312 310 307 305 304 304 304 302 300 295 290 285 279 280 283 285 285 283 279 275 274 272 268 255 241 237 237 243 251 256 264
336 96 227 187 297 311 324 312 310 190 246 240 280 310 313 310 311 311 311 310 307 303 302 302 300 300 299 297 291 287 281 279 283 285 285 284 278 276 274 268 265 255 242 232 236 243 252 257 261
169 192 312 302 288 293 309 3 51 316 329 309 314 317 312 314 312 312 312 310 307 304 302 302 301 300 299 296 292 287 284 283 285 286 285 280 278 277 274 268 258 254 242 233 239 240 244 251 261
281 279 293 280 262 261 282 292 49 354 315 304 298 307 311 308 310 311 313 312 310 306 304 303 302 299 297 295 289 288 287 286 285 284 285 282 281 277 274 266 256 248 246 244 244 247 249 253 256
Wind_Speed_850mb
12 10 4 6 6 1 15 18 6 13 8 6 10 3 1 6 13 7 12 15 18 23 21 27 25 25 31 34 39 39 36 32 27 23 22 22 21 19 17 15 14 14 13 13 13 14 14 14 13
5 5 2 13 5 2 11 6 17 14 10 10 8 5 4 12 5 12 16 23 24 18 19 19 25 27 30 35 36 36 34 30 25 22 21 21 20 18 15 13 11 9 7 7 7 8 9 9 9
7 5 14 8 6 13 14 7 16 9 6 3 3 2 5 11 13 20 12 20 20 19 17 19 22 26 29 32 35 35 33 30 25 21 20 19 18 16 13 9 7 5 3 1 2 3 5 6 6
4 8 12 22 11 14 12 13 9 11 6 2 5 6 11 15 18 13 16 21 21 18 15 23 23 24 26 30 32 33 31 30 26 24 21 19 17 15 12 9 6 6 6 5 5 5 7 7 9
7 12 8 6 7 12 8 10 12 7 7 5 2 12 13 17 15 14 21 24 23 19 16 14 20 24 28 29 29 28 30 29 28 26 24 20 16 12 11 11 10 11 10 10 10 10 10 11 12
19 11 17 12 10 13 6 6 6 4 5 6 4 9 19 16 18 20 21 23 22 19 16 12 19 27 27 24 23 23 24 23 24 23 22 21 18 17 17 16 15 15 15 15 15 15 15 16 17
23 16 3 3 12 14 7 4 9 5 2 3 8 3 13 18 24 25 24 24 20 19 14 15 16 25 28 27 24 22 19 19 20 20 22 20 20 20 20 20 20 20 20 19 19 20 20 21 22
9 10 15 12 12 18 11 9 2 10 13 7 3 11 20 19 28 24 19 21 22 20 17 17 17 21 24 22 20 17 14 13 12 14 15 15 16 20 21 22 23 24 24 24 23 24 25 26 26
5 13 14 10 13 21 15 8 4 4 6 6 2 11 5 18 25 18 17 18 19 20 20 22 22 24 25 21 20 16 12 9 7 10 10 13 15 19 21 23 24 25 26 26 27 27 28 29 31
15 8 9 7 12 20 15 1 11 8 7 11 5 3 4 19 20 16 16 24 19 19 20 23 23 20 23 22 20 15 11 6 10 8 8 9 16 17 18 22 24 27 27 26 25 25 26 28 25
2 19 15 14 11 2 9 11 2 9 8 29 25 7 2 12 15 11 9 15 20 14 13 14 16 16 15 18 17 12 12 11 12 10 12 17 17 18 18 18 20 23 23 24 24 20 20 19 21
23 16 7 12 8 4 5 11 24 25 23 22 8 8 0 7 8 8 6 4 3 7 11 18 16 21 24 23 21 17 14 13 8 11 13 18 13 18 21 20 21 22 23 24 22 21 23 21 24
18 13 9 7 13 16 19 16 15 36 36 17 9 8 7 10 11 11 13 6 2 5 7 12 18 25 28 28 27 24 17 9 10 12 13 16 16 24 25 22 21 23 24 27 29 29 29 26 27
9 10 7 4 14 7 17 21 5 33 31 18 14 11 12 17 19 23 20 16 12 15 10 22 21 26 26 29 22 18 15 10 7 5 8 12 14 17 21 20 17 18 20 23 27 32 35 35 35
22 18 17 14 9 11 10 19 20 26 21 18 18 19 21 22 25 28 26 20 17 21 25 23 25 25 22 18 16 14 11 7 2 4 9 12 14 14 13 12 14 18 24 28 27 29 33 36 39
16 11 15 18 11 7 16 13 18 20 17 18 19 19 21 22 24 22 18 21 17 14 24 22 23 21 19 19 17 14 10 4 3 7 11 12 15 14 13 11 15 20 17 20 23 25 34 39 44
16 8 7 15 11 6 12 17 14 13 14 15 17 20 23 25 28 25 10 10 12 11 20 25 21 23 24 21 19 14 8 4 6 7 8 11 13 16 17 18 20 19 20 17 19 21 22 27 35
11 12 7 4 9 4 11 15 12 11 13 15 19 22 26 30 34 30 21 13 4 5 15 19 21 22 22 20 13 8 7 6 6 4 5 10 12 16 19 21 25 24 22 21 27 29 24 25 27
1 7 7 4 6 3 5 9 10 10 11 15 19 23 29 32 32 33 30 24 16 7 6 15 16 18 17 9 9 8 7 7 6 9 14 17 16 19 25 17 28 28 26 30 30 29 25 21 21
7 10 5 5 1 14 13 11 8 9 13 14 16 23 25 27 32 31 29 27 23 16 12 9 3 4 4 7 11 12 11 13 13 16 24 23 25 27 27 30 27 31 24 35 35 34 24 22 17
2 12 5 16 3 13 13 23 20 14 12 13 15 18 21 25 28 29 28 26 21 18 13 8 2 5 8 15 11 15 19 23 23 23 24 27 29 37 41 41 38 39 39 21 37 27 28 20 22
17 5 14 19 19 17 7 19 24 20 15 10 8 11 15 20 21 21 22 23 24 22 21 19 20 24 26 27 27 30 28 29 34 37 38 40 40 44 45 49 46 45 33 35 30 33 28 22 22
11 14 14 18 22 22 26 14 20 20 18 15 5 4 9 13 18 20 20 20 20 21 23 24 25 27 29 31 36 37 41 49 48 42 44 46 51 48 48 45 47 51 45 39 37 31 29 20 19
9 15 15 13 12 19 8 9 8 13 18 14 8 2 7 14 17 18 21 23 25 27 30 33 35 35 33 31 35 42 52 55 65 66 74 55 50 47 43 44 47 47 43 41 32 31 26 25 25
16 15 8 8 11 11 6 13 6 10 7 4 4 5 7 14 18 22 27 32 36 40 43 44 44 45 45 46 44 43 44 51 54 44 46 48 48 46 44 44 47 48 48 45 46 40 34 28 24
9 13 8 10 11 22 13 11 11 9 7 5 4 9 16 22 28 33 39 42 45 47 48 48 45 47 45 47 49 49 51 52 54 54 52 54 56 54 50 47 52 52 50 45 47 47 35 34 33
6 2 9 10 15 15 2 7 20 14 11 7 8 16 23 30 36 41 44 46 48 50 50 51 53 55 55 55 56 55 55 56 58 59 61 62 63 59 53 49 52 54 54 49 43 42 34 40 45
12 7 8 4 9 18 11 16 11 12 16 8 19 23 29 37 43 48 48 52 54 52 52 53 56 58 59 59 59 59 59 61 65 68 72 68 64 60 58 56 58 57 58 50 43 41 37 41 42
11 8 2 8 9 10 16 9 11 16 17 16 32 40 40 44 50 51 57 57 58 58 58 60 61 61 63 63 62 60 62 66 67 69 65 61 62 63 65 64 62 62 55 49 45 41 42 42 42
5 5 7 6 6 13 19 27 11 7 22 24 35 38 44 48 52 57 61 63 63 64 65 67 66 67 65 63 61 64 71 65 67 58 60 60 62 60 61 55 63 73 65 60 52 46 47 46 46
Wind_Direction_850mb
338 19 107 285 254 242 102 89 45 103 158 95 102 136 61 18 352 25 128 148 146 157 164 162 160 157 162 162 168 171 171 168 162 157 155 152 148 144 138 129 119 112 107 104 97 87 76 71 63
345 74 259 274 235 188 67 61 77 51 70 137 124 145 146 92 95 120 130 163 149 162 163 165 165 161 167 170 170 174 176 177 172 168 165 160 157 152 147 141 131 122 113 102 92 81 70 57 45
108 184 260 271 257 181 149 118 106 104 140 201 130 119 93 88 115 128 140 156 154 156 164 179 172 166 167 173 180 178 177 179 180 178 174 169 164 160 157 155 157 158 151 127 35 24 28 19 13
169 220 229 246 108 52 82 116 115 131 128 233 3 105 96 99 129 136 141 149 145 153 161 178 173 174 171 168 176 182 179 184 182 182 180 177 175 173 173 181 203 223 232 249 279 301 317 324 326
211 238 244 268 105 127 85 102 157 152 64 68 277 93 95 121 116 154 162 149 152 154 161 169 169 178 175 167 168 172 176 177 181 181 181 187 189 197 207 211 224 242 248 252 264 280 292 297 299
224 266 247 189 158 140 130 161 209 284 15 79 208 128 101 145 126 130 145 155 149 146 143 174 168 171 177 168 163 167 170 174 181 186 192 200 209 217 226 232 235 242 248 250 255 265 278 286 290
262 237 249 223 164 156 121 238 236 341 79 134 23 124 98 143 145 125 134 139 146 148 160 155 167 177 174 172 170 159 162 179 185 197 207 216 224 232 238 243 246 249 250 251 255 260 266 272 278
256 261 195 200 173 122 134 173 261 222 86 114 29 19 95 154 157 145 131 137 147 147 156 155 161 166 174 180 167 165 164 180 189 207 216 229 240 247 247 249 250 252 252 253 252 255 260 264 267
231 235 203 153 183 116 144 170 162 95 146 137 95 16 66 159 169 179 176 151 153 160 170 168 162 165 172 176 174 176 165 175 204 213 234 244 252 250 259 260 262 260 261 264 266 265 266 269 269
245 217 67 47 72 132 134 274 151 217 167 205 248 331 143 168 171 181 189 185 173 175 179 175 172 168 169 170 168 151 138 144 193 200 231 247 240 245 246 257 261 259 261 262 266 269 270 266 264
319 97 122 103 84 28 124 140 155 266 191 10 337 81 177 201 202 207 207 205 218 218 190 186 176 166 164 172 163 166 172 184 204 212 240 245 253 266 268 266 275 270 267 266 273 275 275 267 253
114 99 96 85 57 210 141 108 78 48 7 339 321 8 342 206 215 225 246 217 213 175 180 178 188 194 194 195 192 206 201 213 221 245 266 274 284 274 259 259 256 270 269 259 258 261 259 253 256
116 116 100 105 92 70 101 66 99 29 8 17 20 351 320 288 257 259 268 309 295 191 200 174 207 217 223 221 221 220 217 223 249 265 278 282 280 275 280 278 278 260 260 264 267 267 267 266 267
147 137 128 107 91 100 98 61 10 4 1 6 9 343 318 299 287 275 274 284 300 248 228 230 228 223 224 222 222 221 231 235 236 274 312 312 301 294 286 290 290 287 282 280 270 265 264 267 268
153 151 129 84 138 133 151 75 35 4 9 7 355 333 323 320 310 284 276 277 263 252 240 246 235 231 219 212 212 220 224 215 243 311 307 314 315 313 299 299 300 296 290 292 286 281 277 273 268
199 240 194 81 152 144 223 107 43 13 17 24 17 5 349 337 339 330 283 269 271 250 270 247 238 216 206 209 210 211 203 175 256 300 308 318 317 318 310 313 296 292 307 303 302 289 276 272 270
194 174 168 122 61 161 251 116 47 30 38 40 36 31 25 16 10 0 339 291 271 246 268 249 219 209 209 208 209 205 207 208 268 290 313 312 323 331 329 317 310 302 293 306 305 305 294 281 272
150 178 195 242 80 108 106 111 85 56 55 52 49 46 42 37 27 21 17 13 353 193 256 223 216 219 218 219 217 225 256 277 285 299 311 334 343 340 346 337 335 324 310 302 294 293 292 300 290
279 262 266 92 90 215 88 125 93 78 77 70 56 51 46 44 39 37 38 39 42 49 252 225 228 226 219 209 211 243 234 245 257 268 288 307 305 309 316 320 319 319 317 315 306 300 301 297 290
262 269 229 201 109 279 179 157 133 113 86 71 60 54 49 46 42 39 42 42 44 47 48 49 42 265 276 289 265 249 254 258 255 269 279 289 294 299 302 302 303 304 308 309 309 309 303 295 291
321 304 289 298 257 252 233 201 181 152 130 100 75 59 48 44 40 37 34 34 32 25 21 17 323 251 275 251 291 283 275 277 286 284 288 288 283 295 294 295 293 295 297 294 306 306 310 296 286
284 19 293 280 274 289 236 290 192 166 162 149 107 54 34 22 24 25 22 19 18 21 13 5 332 316 312 301 290 282 284 283 278 282 286 282 285 283 281 282 278 282 278 280 283 291 300 304 293
12 319 296 288 272 289 231 256 106 174 193 170 168 48 24 9 2 358 359 356 356 358 350 346 342 331 321 312 297 288 281 277 279 285 288 291 290 284 274 262 257 265 268 266 265 275 283 291 291
309 261 251 262 258 241 107 263 235 183 237 168 196 278 344 344 339 337 336 334 330 331 329 324 320 313 308 305 300 295 291 287 286 285 284 287 286 280 275 269 256 249 242 246 253 259 276 277 282
326 310 307 234 207 280 102 265 308 100 147 275 251 281 316 325 325 324 320 318 314 315 315 315 308 303 298 294 287 282 282 281 285 287 284 282 281 281 278 272 259 250 247 239 250 258 261 276 278
354 333 311 302 319 315 236 262 76 93 150 186 264 306 303 318 321 316 312 310 309 308 310 311 309 307 303 295 288 280 278 283 281 284 281 278 279 280 279 271 266 252 243 239 241 249 256 254 275
59 347 9 300 265 265 340 209 191 170 187 221 300 314 314 315 313 312 312 310 307 305 304 304 304 302 300 295 290 285 279 280 283 285 285 283 279 275 274 272 268 255 241 237 237 243 251 256 264
336 96 227 187 297 311 324 312 310 190 246 240 280 310 313 310 311 311 311 310 307 303 302 302 300 300 299 297 291 287 281 279 283 285 285 284 278 276 274 268 265 255 242 232 236 243 252 257 261
169 192 312 302 288 293 309 3 51 316 329 309 314 317 312 314 312 312 312 310 307 304 302 302 301 300 299 296 292 287 284 283 285 286 285 280 278 277 274 268 258 254 242 233 239 240 244 251 261
281 279 293 280 262 261 282 292 49 354 315 304 298 307 311 308 310 311 313 312 310 306 304 303 302 299 297 295 289 288 287 286 285 284 285 282 281 277 274 266 256 248 246 244 244 247 249 253 256